Showing default

ARCSTONE, 64540

Orbit data source: Space-Track

ARCSTONE, 64540 is a payload satellite owned by NASA LaRC (US) in SSO that was launched on Mon, 23 Jun 2025 UTC via an FALCON 9 launch vehicle from the Air Force Western Test Range (AFWTR). Payload-class satellites include a variety of spacecraft equipped with specific instruments for various scientific and technological missions. These include communications satellites like Starlink; space stations such as the ISS; scientific satellites like the Hubble; Earth observation satellites from companies like Planet Labs, Umbra, and HawkEye 360; GPS; miniature CubeSats for education and research; and military/defense satellites.

Loading next visibility...
Identifier
64540, 2025-135N
Orbit
SSO
Country
Flag of USUS
Related business
Manufacturer
Blue Canyon
Mission
Operational Civil Astronomy
Bus & Motor
CUBESAT 6U, Unknown motor
Mass
5 kg wet, 5 kg dry
Launch date (UTC)
2025-06-23 (10 months ago)
Launch vehicle
FALCON 9
Launch site
Air Force Western Test Range (AFWTR)
Object type
Payload
Rocket body
Debris
Shape & HBR
Box + 2 Pan, 0.7 m
Radar Cross Section
0.072 m², Medium (>0.1 m² and < 1m²)

Expand to show TLE details & history
Last TLE update: 12 hours ago

TLE from 12 hours ago
0 ARCSTONE
1 64540U 25135N   26110.29710836  .00013490  00000-0  45801-3 0  9999
2 64540  97.4551 227.4348 0003287  56.2771 303.8782 15.30615185 46174
Epoch: 2026-04-20T07:07Z
TLE epoch observation values (Epoch: 2026-04-20T07:07:50.162Z)
Latitude
-0.00008°
Longitude
-87.91346°
Altitude
475.824 km
Speed
7.629 km/s
True Right ascension
15h 09m 44s
True Declination
0° 00' 00"
Sunlit
Object was in full shadow at epoch
Visualization orbit readout
Latitude
Unknown
Longitude
Unknown
Altitude
Unknown
Speed
Unknown
Apparent Right ascension
Unknown
Apparent Declination
Unknown
Sunlit
N/A
Visualization observer readout
Local Sidereal Time
02:30:40
Azimuth
Unknown
Elevation
Unknown
Doppler factor
Unknown
Orbital elements
Apogee altitude
473.181 km
Perigee altitude
468.678 km
Semi-major axis
6,849.066 km
Eccentricity
0.00033
Inclination
97.4551°
RAAN
227.4348°
Arg. of periapsis
56.2771°
True anomaly
303.84692°
Mean anomaly
303.8782°
Eccentric anomaly
303.86256°
Mean motion
3.82909 °/min
Orbital period
94.02 mins
BSTAR
0.00045801
Loading maneuver chart data...
Computing Atmospheric mass density...
Loading historical data...
Loading historical data...
Loading historical data...
Loading historical data...
Loading historical data...
Loading historical data...
Loading historical data...

Documentation

Showing up to 5 results
|